• In Czech Republic
  • List of Countries
  • For 7 days
  • Water Temperature
  • Satellite Maps
  • Weather Map
  • Weather Widgets
  • user-avatar
    Login

    Hourly Weather Priuralnoe

    Today, 18 July, Wednesday

    Time Temperature Precipitation Wind Pressure Humidity
    00:00 +24°C° 0 mm 3 mps 748 mmHg 73%
    01:00 +22°C° 0 mm 3 mps 748 mmHg 75%
    02:00 +22°C° 0 mm 3 mps 748 mmHg 75%
    03:00 +23°C° 0 mm 2 mps 748 mmHg 75%
    04:00 +23°C° 0 mm 2 mps 748 mmHg 76%
    05:00 +24°C° 0 mm 2 mps 748 mmHg 72%
    06:00 +25°C° 0 mm 2 mps 748 mmHg 69%
    07:00 +26°C° 0 mm 1 mps 748 mmHg 66%
    08:00 +28°C° 0 mm 1 mps 748 mmHg 58%
    09:00 +30°C° 0 mm 1 mps 748 mmHg 50%
    10:00 +31°C° 0 mm 2 mps 748 mmHg 43%
    11:00 +32°C° 0 mm 2 mps 748 mmHg 41%
    12:00 +33°C° 0 mm 3 mps 748 mmHg 40%
    13:00 +33°C° 0 mm 3 mps 748 mmHg 38%
    14:00 +34°C° 0 mm 3 mps 748 mmHg 38%
    15:00 +34°C° 0 mm 3 mps 748 mmHg 37%
    16:00 +34°C° 0 mm 3 mps 748 mmHg 37%
    17:00 +33°C° 0 mm 3 mps 748 mmHg 40%
    18:00 +31°C° 0 mm 2 mps 748 mmHg 43%
    19:00 +31°C° 0 mm 2 mps 748 mmHg 46%
    20:00 +29°C° 0 mm 1 mps 748 mmHg 49%
    21:00 +28°C° 0 mm 1 mps 749 mmHg 51%
    22:00 +26°C° 0 mm 1 mps 749 mmHg 54%
    23:00 +26°C° 0 mm 1 mps 749 mmHg 55%

    Tomorrow, 19 July, Thursday

    Time Temperature Precipitation Wind Pressure Humidity
    00:00 +26°C° 0 mm 1 mps 749 mmHg 55%
    01:00 +25°C° 0 mm 1 mps 749 mmHg 56%
    02:00 +25°C° 0 mm 1 mps 749 mmHg 56%
    03:00 +25°C° 0 mm 1 mps 749 mmHg 57%
    04:00 +24°C° 0 mm 2 mps 750 mmHg 57%
    05:00 +25°C° 0 mm 1 mps 750 mmHg 55%
    06:00 +26°C° 0 mm 1 mps 750 mmHg 54%
    07:00 +27°C° 0 mm 1 mps 750 mmHg 52%
    08:00 +29°C° 0 mm 1 mps 750 mmHg 47%
    09:00 +31°C° 0 mm 2 mps 750 mmHg 42%
    10:00 +32°C° 0 mm 2 mps 750 mmHg 37%
    11:00 +34°C° 0 mm 2 mps 750 mmHg 35%
    12:00 +34°C° 0 mm 2 mps 750 mmHg 34%
    13:00 +35°C° 0 mm 2 mps 750 mmHg 32%
    14:00 +35°C° 0 mm 2 mps 750 mmHg 32%
    15:00 +35°C° 0 mm 2 mps 750 mmHg 33%
    16:00 +35°C° 0 mm 2 mps 750 mmHg 33%
    17:00 +34°C° 0 mm 2 mps 750 mmHg 35%
    18:00 +34°C° 0 mm 2 mps 750 mmHg 38%
    19:00 +32°C° 0 mm 2 mps 750 mmHg 41%
    20:00 +31°C° 0 mm 2 mps 751 mmHg 43%
    21:00 +29°C° 0 mm 2 mps 751 mmHg 46%
    22:00 +28°C° 0 mm 2 mps 751 mmHg 49%
    23:00 +27°C° 0 mm 2 mps 751 mmHg 51%

    Day after tomorrow, 20 July, Friday

    Time Temperature Precipitation Wind Pressure Humidity
    00:00 +26°C° 0 mm 2 mps 751 mmHg 53%
    01:00 +26°C° 0 mm 2 mps 751 mmHg 55%
    02:00 +25°C° 0 mm 2 mps 751 mmHg 56%
    03:00 +25°C° 0 mm 2 mps 751 mmHg 58%
    04:00 +25°C° 0 mm 2 mps 751 mmHg 59%
    05:00 +25°C° 0 mm 2 mps 751 mmHg 59%
    06:00 +26°C° 0 mm 2 mps 751 mmHg 58%
    07:00 +27°C° 0 mm 2 mps 751 mmHg 58%
    08:00 +29°C° 0 mm 2 mps 751 mmHg 52%
    09:00 +31°C° 0 mm 3 mps 751 mmHg 47%
    10:00 +34°C° 0 mm 3 mps 751 mmHg 41%
    11:00 +34°C° 0 mm 3 mps 751 mmHg 38%
    12:00 +35°C° 0 mm 2 mps 751 mmHg 36%
    13:00 +36°C° 0 mm 2 mps 751 mmHg 33%
    14:00 +36°C° 0 mm 2 mps 750 mmHg 32%
    15:00 +36°C° 0 mm 2 mps 750 mmHg 32%
    16:00 +37°C° 0 mm 3 mps 750 mmHg 31%
    17:00 +36°C° 0 mm 3 mps 750 mmHg 35%
    18:00 +35°C° 0 mm 3 mps 750 mmHg 39%
    19:00 +34°C° 0 mm 4 mps 750 mmHg 43%
    20:00 +32°C° 0 mm 4 mps 750 mmHg 47%
    21:00 +30°C° 0 mm 4 mps 750 mmHg 51%
    22:00 +28°C° 0 mm 4 mps 750 mmHg 56%
    23:00 +27°C° 0 mm 4 mps 750 mmHg 59%

    21 July, Saturday

    Time Temperature Precipitation Wind Pressure Humidity
    00:00 +27°C° 0 mm 4 mps 750 mmHg 61%
    01:00 +26°C° 0 mm 3 mps 750 mmHg 64%
    02:00 +25°C° 0 mm 3 mps 750 mmHg 67%
    03:00 +25°C° 0 mm 3 mps 750 mmHg 69%
    04:00 +24°C° 0 mm 3 mps 750 mmHg 71%
    05:00 +25°C° 0 mm 4 mps 750 mmHg 70%
    06:00 +26°C° 0 mm 4 mps 750 mmHg 68%
    07:00 +26°C° 0 mm 5 mps 750 mmHg 67%
    08:00 +28°C° 0 mm 5 mps 750 mmHg 62%
    09:00 +29°C° 0 mm 5 mps 750 mmHg 57%
    10:00 +32°C° 0 mm 6 mps 750 mmHg 53%
    11:00 +33°C° 0 mm 6 mps 750 mmHg 49%
    12:00 +34°C° 0 mm 6 mps 750 mmHg 45%
    13:00 +35°C° 0 mm 6 mps 750 mmHg 42%
    14:00 +35°C° 0 mm 6 mps 750 mmHg 42%
    15:00 +35°C° 0 mm 6 mps 750 mmHg 42%
    16:00 +35°C° 0 mm 6 mps 749 mmHg 42%
    17:00 +34°C° 0 mm 6 mps 749 mmHg 46%
    18:00 +33°C° 0 mm 6 mps 749 mmHg 49%
    19:00 +32°C° 0 mm 6 mps 750 mmHg 52%
    20:00 +30°C° 0.2 mm 6 mps 750 mmHg 57%
    21:00 +28°C° 0.2 mm 6 mps 750 mmHg 62%
    22:00 +26°C° 0.2 mm 6 mps 750 mmHg 67%
    23:00 +26°C° 0.2 mm 6 mps 750 mmHg 68%

    22 July, Sunday

    Time Temperature Precipitation Wind Pressure Humidity
    00:00 +26°C° 0.2 mm 6 mps 750 mmHg 70%
    01:00 +24°C° 0.2 mm 6 mps 749 mmHg 71%
    02:00 +24°C° 0.2 mm 6 mps 749 mmHg 71%
    03:00 +24°C° 0.2 mm 6 mps 749 mmHg 72%
    04:00 +24°C° 0.2 mm 6 mps 749 mmHg 72%
    05:00 +23°C° 0.7 mm 7 mps 750 mmHg 72%
    06:00 +23°C° 0.7 mm 7 mps 750 mmHg 73%
    07:00 +23°C° 0.7 mm 8 mps 750 mmHg 73%
    08:00 +24°C° 0.1 mm 8 mps 750 mmHg 71%
    09:00 +26°C° 0.1 mm 8 mps 750 mmHg 69%
    10:00 +26°C° 0.1 mm 8 mps 750 mmHg 67%
    11:00 +27°C° 0.1 mm 8 mps 750 mmHg 65%
    12:00 +27°C° 0.1 mm 8 mps 750 mmHg 63%
    13:00 +28°C° 0.1 mm 8 mps 750 mmHg 61%
    14:00 +28°C° 0.1 mm 8 mps 750 mmHg 59%
    15:00 +29°C° 0.1 mm 9 mps 750 mmHg 57%
    16:00 +29°C° 0.1 mm 9 mps 750 mmHg 56%
    17:00 +29°C° 0.1 mm 9 mps 750 mmHg 56%
    18:00 +28°C° 0.1 mm 9 mps 750 mmHg 56%
    19:00 +28°C° 0.1 mm 9 mps 750 mmHg 56%
    20:00 +27°C° 0.1 mm 8 mps 750 mmHg 55%
    21:00 +26°C° 0.1 mm 8 mps 751 mmHg 55%
    22:00 +24°C° 0.1 mm 8 mps 751 mmHg 54%
    23:00 +24°C° 0.1 mm 8 mps 751 mmHg 52%

    23 July, Monday

    Time Temperature Precipitation Wind Pressure Humidity
    00:00 +23°C° 0.1 mm 8 mps 751 mmHg 50%
    01:00 +23°C° 0.1 mm 7 mps 751 mmHg 48%
    02:00 +22°C° 0.1 mm 7 mps 751 mmHg 47%
    03:00 +22°C° 0.1 mm 7 mps 751 mmHg 47%
    04:00 +21°C° 0.1 mm 7 mps 752 mmHg 47%
    05:00 +21°C° 0.1 mm 7 mps 752 mmHg 47%
    06:00 +21°C° 0.1 mm 8 mps 752 mmHg 48%
    07:00 +21°C° 0.1 mm 8 mps 752 mmHg 49%
    08:00 +22°C° 0 mm 8 mps 752 mmHg 47%
    09:00 +23°C° 0 mm 9 mps 752 mmHg 46%
    10:00 +23°C° 0 mm 9 mps 752 mmHg 45%
    11:00 +24°C° 0 mm 9 mps 752 mmHg 42%
    12:00 +26°C° 0 mm 9 mps 752 mmHg 40%
    13:00 +27°C° 0 mm 9 mps 752 mmHg 38%
    14:00 +28°C° 0 mm 9 mps 752 mmHg 37%
    15:00 +28°C° 0 mm 9 mps 752 mmHg 36%
    16:00 +29°C° 0 mm 9 mps 752 mmHg 35%
    17:00 +28°C° 0 mm 8 mps 752 mmHg 37%
    18:00 +27°C° 0 mm 8 mps 753 mmHg 39%
    19:00 +26°C° 0 mm 7 mps 753 mmHg 41%
    20:00 +24°C° 0 mm 7 mps 753 mmHg 42%
    21:00 +23°C° 0 mm 7 mps 753 mmHg 43%
    22:00 +22°C° 0 mm 7 mps 753 mmHg 44%
    23:00 +21°C° 0 mm 7 mps 753 mmHg 45%
    Show more